Miscellaneous Local Product
Issued by NWS North Platte, NE

Home | Current Version | Previous Version | Graphics & Text | Print | Product List | Glossary On
Versions: 1 2 3 4 5 6 7 8 9 10 11 12 13 14 15 16 17 18 19 20 21 22 23 24 25 26 27 28 29 30 31 32 33 34 35 36 37 38 39 40 41 42 43 44 45 46 47 48 49 50
000
AXUS43 KLBF 261810
MISLBF


WESTERN AND NORTH CENTRAL NEBRASKA HOURLY WEATHER ROUNDUP
NATIONAL WEATHER SERVICE NORTH PLATTE NE
100 PM CDT MON JUN 26 2017

NOTE: "FAIR" INDICATES FEW OR NO CLOUDS BELOW 12,000 FEET WITH NO
SIGNIFICANT WEATHER AND/OR OBSTRUCTIONS TO VISIBILITY.

NOTE: STATIONS NOT REPORTING VARIABLES SUCH AS SKY/WEATHER OR
PRESSURE ARE PROVIDED BY RAWS AND APRS NETWORKS AND ARE NOT UNDER
NATIONAL WEATHER SERVICE QUALITY CONTROL.

...OBSERVATIONS IN AND NEAR THE EASTERN PANHANDLE OF NEBRASKA...

CITY           SKY/WX    TMP DP  RH WIND       PRES   REMARKS
PINE RIDGE     SUNNY     74  42  31 E8        30.22F
GORDON         FAIR      72  38  29 SE12      30.23F
CHADRON        SUNNY     76  39  26 NE12      30.20F
ALLIANCE       SUNNY     75  39  27 E13       30.21F
SIDNEY         MOSUNNY   77  54  44 NE8G22    30.21F
CRESCENT LAKE    N/A     76  44  31 E8G18       N/A
$$

...OBSERVATIONS IN NORTHERN NEBRASKA AND FAR SOUTHERN SOUTH DAKOTA...

CITY           SKY/WX    TMP DP  RH WIND       PRES   REMARKS
WINNER         FAIR      75  41  29 NE9G23    30.22F
VALENTINE      SUNNY     76  37  24 E13G21    30.22S
THEDFORD       SUNNY     75  40  28 E14G20    30.22S
AINSWORTH      SUNNY     73  43  33 NE14G20   30.22S
O`NEILL        SUNNY     70  45  40 NE10G21   30.22F
ORD            SUNNY     76  43  30 NE10G20   30.17S
BROKEN BOW     MOSUNNY   77  48  35 NE13G24   30.18F
HALSEY           N/A     74  38  26 NE9G20      N/A
BUTTE            N/A     67  44  43 N10         N/A
CHAMBERS         N/A     74  46  36 CALM        N/A
EWING            N/A     72  49  43 NE5G15      N/A
$$

...OBSERVATIONS IN SOUTHWEST NEBRASKA AND FAR NORTHEAST COLORADO...

CITY           SKY/WX    TMP DP  RH WIND       PRES   REMARKS
WRAY           FAIR      81  55  41 CALM      30.19F
IMPERIAL       SUNNY     81  56  42 VRB6      30.17F
OGALLALA       SUNNY     79  55  43 NE10G18   30.19F
NORTH PLATTE   MOSUNNY   73  60  63 NE8       30.19S
MCCOOK         SUNNY     79  59  50 VRB7      30.15F
LEXINGTON      PTSUNNY   72  59  64 E5        30.17F
STAPLETON        N/A     72  45  37 E7G14       N/A
GOTHENBURG       N/A     71  57  61 N5          N/A
CALLAWAY         N/A     70  64  81 SE5         N/A
$$

...OBSERVATIONS IN CENTRAL LINCOLN COUNTY AREA...

CITY           SKY/WX    TMP DP  RH WIND       PRES   REMARKS
N.P. AIRPORT   MOSUNNY   73  60  63 NE8       30.19S
N.P. DOWNTOWN    N/A     72  59  62 E10G17      N/A
N.P. SOUTHEAST   N/A     72  58  60 NE5         N/A
N.P. HILLCREST   N/A     71  56  58 E13G20      N/A
$$

...SOME OBSERVATIONS FROM AROUND THE REGION...

CITY           SKY/WX    TMP DP  RH WIND       PRES   REMARKS
DENVER         MOSUNNY   79  48  33 CALM      30.24F
LIMON          PTSUNNY   79  46  31 S9        30.23F
ASPEN          SUNNY     77  25  14 VRB5      30.36F
LARAMIE        SUNNY     74  29  19 N7        30.33F
CASPER         SUNNY     78  32  18 VRB5      30.20F
CHEYENNE       SUNNY     77  40  26 E8        30.28F
SCOTTSBLUFF    SUNNY     78  44  29 NE7       30.21F
GRAND ISLAND   PTSUNNY   74  60  61 NW14      30.17S
OMAHA          MOSUNNY   71  58  63 E5        30.16F
SIOUX FALLS    MOSUNNY   67  44  43 N12G17    30.22F
PIERRE         SUNNY     71  41  33 E8        30.21F
RAPID CITY     SUNNY     73  39  29 SE18G24   30.20F
BISMARCK       SUNNY     70  43  37 VRB3      30.21F
KANSAS CITY    CLOUDY    60  55  83 E10       30.23F
HILL CITY      SUNNY     75  63  66 CALM      30.16F
WICHITA        MOSUNNY   83  61  47 SW13G21   30.14F
DODGE CITY     MOSUNNY   77  62  59 VRB5      30.18F
OKLAHOMA CITY  PTSUNNY   80  59  48 VRB7      30.16F
DALLAS         PTSUNNY   82  69  64 VRB3      30.12F
AMARILLO       SUNNY     80  57  45 S9        30.23F
$$




USA.gov is the U.S. government's official web portal to all federal, state and local government web resources and services.